Weather Roundup
Issued by NWS Chicago, IL

Home | Current Version | Previous Version | Graphics & Text | Print | Product List | Glossary On
Versions: 1 2 3 4 5 6 7 8 9 10 11 12 13 14 15 16 17 18 19 20 21 22 23 24 25 26 27 28 29 30 31 32 33 34 35 36 37 38 39 40 41 42 43 44 45 46 47 48 49 50
000
NZUS59 KLOT 070308
HRRLOT

CHICAGO AREA WEATHER ROUNDUP
NATIONAL WEATHER SERVICE CHICAGO/ROMEOVILLE IL
900 PM CST SAT FEB 06 2016

NOTE: "FAIR" INDICATES FEW OR NO CLOUDS BELOW 12,000 FEET WITH NO
SIGNIFICANT WEATHER AND/OR OBSTRUCTIONS TO VISIBILITY.

* THESE STATIONS ARE NOT UNDER NWS QUALITY CONTROL. THEY ALSO MAY NOT
  REPORT WEATHER SUCH AS PRECIPITATION OR FOG.

ILZ005-006-012>014-019>023-070400-
NORTHEAST ILLINOIS

CITY           SKY/WX    TMP DP  RH WIND       PRES   REMARKS
OHARE          CLEAR     33  27  78 S6        30.10F WCI  28
MIDWAY         CLEAR     36  27  69 S7G17     30.11F
AURORA         CLEAR     34  27  75 S7        30.10F WCI  28
LANSING*       CLEAR     30  27  89 S5        30.13F WCI  25
JOLIET*        CLEAR     30  29  94 S3        30.11F
WAUKEGAN       CLEAR     30  27  88 SW5       30.08F WCI  25
DUPAGE AIRPORT CLEAR     30  25  81 S3        30.09F
WHEELING       CLEAR     31  27  85 S3        30.11F
KANKAKEE*      CLEAR     32  28  86 S6        30.13F WCI  26
MORRIS*          N/A     32  28  86 SW6       30.09F WCI  27
LEWIS AIRPORT* CLEAR     32  28  84 S7        30.11F WCI  25
$$

WIZ051-052-058>065-066-070>072-070400-
SOUTHEAST WISCONSIN

CITY           SKY/WX    TMP DP  RH WIND       PRES   REMARKS
MILWAUKEE      PTCLDY    31  26  82 S7        30.05F WCI  24
KENOSHA*       CLEAR     32  26  78 SW6       30.07F WCI  26
RACINE*        PTCLDY    30  25  81 S7        30.08F WCI  23
BURLINGTON     CLEAR     28  25  87 S7        30.06F WCI  21
WAUKESHA       CLOUDY    28  27  93 S5        30.05F WCI  23
$$

INZ001>003-010>013-019-020-070400-
NORTHWEST INDIANA

CITY           SKY/WX    TMP DP  RH WIND       PRES   REMARKS
GARY*          CLEAR     36  28  75 SE6       30.13F
MICHIGAN CITY* NOT AVBL
RENSSELAER*    NOT AVBL
VALPARAISO     CLEAR     33  28  81 S5        30.13F WCI  29
$$

LMZ740>746-070400-
SOUTHERN LAKE MICHIGAN

STATION/POSITION TIME  SKY/WX   TEMP WIND        PRES    VSBY
                                AIR  DIR/SP/G
                 (UTC)          (F)  (DEG/KT/KT) (MB)    (MI)
HARRISON CRIB    0200            38  180/ 12/ 13   N/A
BURNHAM HARBOR   0300            38  190/  6/ 10   N/A
CALUMET HARBOR   0200            36  170/  6/  9 1019.5F
BURNS HARBOR     0200            36  180/  9/ 11 1021.0F
MICHIGAN CITY    0200            37  150/ 12/ 14   N/A
$$

ABBREVIATIONS USED IN REMARKS
   TC - TEMPERATURE IN CELSIUS
  WCI - WIND CHILL INDEX
   HX - HEAT INDEX
  VSB - VISIBILITY
$$



USA.gov is the U.S. government's official web portal to all federal, state and local government web resources and services.